#timestamp,LO_Frequency,Hit,StdDev 
1544439615.5,286047010.7,N
1544439635.4,286047006.7,N
1544439655.2,286047006.9,N
1544439675.0,286047004.2,N
1544439675.9,286047004.2,N
1544439695.8,286046998.1,N
1544439715.6,286046996.2,N
1544439735.4,286046993.0,N
1544439755.3,286046993.1,N
1544439775.1,286046996.2,N
1544439795.9,286046995.1,N
1544439815.7,286046996.0,N
1544439835.5,286046998.4,N
1544439855.4,286047001.0,N
1544439875.2,286047002.5,N
1544439895.1,286047002.7,N
1544439896.0,286047002.7,N
1544439915.8,286047001.8,N
1544439935.6,286047007.4,N
1544439955.5,286047009.4,N
1544439975.3,286047009.6,N
1544439995.1,286047007.6,N
1544440015.9,286047004.2,N
1544440035.7,286047000.6,N
1544440055.6,286046998.1,N
1544440075.4,286047001.0,N
1544440095.2,286047000.7,N
1544440115.1,286047004.7,N
1544440116.0,286047004.7,N
1544440135.8,286047003.2,N
1544440155.6,286047000.0,N
1544440175.5,286046997.2,N
1544440195.3,286046995.4,N
1544440215.2,286046993.6,N
1544440235.9,286046992.6,N
1544440255.7,286046996.2,N
1544440275.6,286046996.6,N
1544440295.4,286046996.7,N
1544440315.2,286046995.0,N
1544440335.1,286046993.9,N
1544440336.0,286046993.9,N
1544440355.8,286046992.1,N
1544440375.7,286046990.4,N
1544440395.5,286046991.2,N
1544440415.3,286046989.0,N
1544440435.2,286046989.3,N
1544440455.9,286046991.1,N
1544440475.7,286046988.5,N
1544440495.6,286046991.7,N
1544440515.4,286046991.9,N
1544440535.2,286046996.0,N
1544440555.1,286046996.4,N
1544440556.0,286046996.4,N
1544440575.8,286046999.5,N
1544440595.7,286046997.5,N
1544440615.5,286046995.0,N
1544440635.3,286046998.2,N
1544440655.2,286047003.0,N
1544440675.0,286047007.5,N
1544440675.9,286047007.5,N
1544440695.8,286047003.7,N
1544440715.6,286046999.9,N
1544440735.4,286047000.9,N
1544440755.3,286047000.4,N
1544440775.1,286047000.5,N
1544440795.8,286047001.2,N
1544440815.7,286046997.0,N
1544440835.5,286047004.4,N
1544440855.3,286047009.5,N
1544440875.2,286047009.9,N
1544440895.0,286047011.5,N
1544440895.9,286047011.5,N
1544440915.8,286047012.3,N
1544440935.6,286047016.8,N
1544440955.4,286047018.2,N
1544440975.3,286047021.1,N
1544440995.1,286047019.9,N
1544441015.8,286047017.9,N
1544441035.7,286047015.0,N
1544441055.5,286047011.4,N
1544441075.4,286047010.4,N
1544441095.2,286047010.5,N
1544441115.0,286047011.2,N
1544441115.9,286047011.2,N
1544441135.8,286047012.3,N
1544441155.6,286047010.6,N
1544441175.5,286047007.3,N
1544441195.3,286047004.9,N
1544441215.1,286047004.1,N
1544441235.9,286047000.2,N
1544441255.7,286046998.2,N
1544441275.5,286047000.4,N
1544441295.4,286047006.0,N
1544441315.2,286047003.5,N
1544441335.0,286047009.1,N
1544441336.0,286047009.1,N
1544441355.8,286047009.4,N
1544441375.6,286047015.5,N
1544441395.5,286047011.0,N
1544441415.3,286047010.8,N
1544441435.1,286047011.2,N
1544441455.9,286047017.0,Y
1544441475.7,286047002.9,P
1544441495.6,286047004.2,N
1544441515.4,286047007.3,N
1544441535.2,286047007.9,N
1544441555.1,286047005.1,N
1544441556.0,286047005.1,N
1544441575.8,286047005.5,N
1544441595.6,286047009.2,Y
1544441615.5,286047004.4,P
1544441635.3,286047002.8,P
1544441655.2,286046998.5,N
1544441675.9,286046996.1,N
1544441695.7,286046993.9,N
1544441715.6,286046993.7,N
1544441735.4,286046997.5,N
1544441755.2,286047000.2,N
1544441775.1,286047005.0,N
1544441776.0,286047005.0,N
1544441795.8,286047006.7,N
1544441815.7,286047005.4,N
1544441835.5,286047001.7,N
1544441855.3,286047003.1,N
1544441875.2,286047004.3,N
1544441895.9,286047003.5,N
1544441915.7,286047005.3,N
1544441935.6,286047005.3,N
1544441955.4,286047005.2,N
1544441975.2,286047008.7,N
1544441995.1,286047006.1,N
1544441996.0,286047006.1,N
1544442015.8,286047006.1,N
1544442035.7,286047010.7,N
1544442055.5,286047012.6,N
1544442075.3,286047015.3,Y
1544442095.2,286047010.0,P
1544442115.0,286047009.7,P
1544442115.9,286047009.7,P
1544442135.8,286047015.0,Y
1544442155.6,286047010.2,P
1544442175.4,286047010.0,P
1544442195.3,286047005.6,P
1544442215.1,286046998.5,N
1544442235.8,286046997.5,N
1544442255.7,286047000.4,N
1544442275.5,286047002.8,N
1544442295.3,286046996.5,N
1544442315.2,286046995.2,N
1544442335.0,286046998.5,N
1544442335.9,286046998.5,N
1544442355.8,286046997.7,N
1544442375.6,286046996.7,N
1544442395.4,286046995.3,N
1544442415.3,286046993.3,N
1544442435.1,286046993.5,N
1544442455.8,286046997.6,N
1544442475.7,286046997.2,N
1544442495.5,286046999.6,N
1544442515.4,286046995.0,N
1544442535.2,286047000.7,N
1544442555.0,286047001.1,N
1544442555.9,286047001.1,N
1544442575.8,286046996.7,N
1544442595.6,286047000.9,N
1544442615.4,286047002.4,N
1544442635.3,286047000.2,N
1544442655.1,286046998.2,N
1544442675.9,286047002.3,N
1544442695.7,286047003.7,N
1544442715.5,286047001.5,N
1544442735.4,286046999.8,N
1544442755.2,286047000.2,N
1544442775.0,286047002.7,N
1544442775.9,286047002.7,N
1544442795.8,286046998.3,N
1544442815.6,286047003.8,N
1544442835.5,286047004.4,N
1544442855.3,286047000.3,N
1544442875.1,286047001.5,N
1544442895.9,286047000.9,N
1544442915.7,286046995.5,N
1544442935.5,286046992.5,N
1544442955.4,286046990.6,N
1544442975.2,286046987.3,Y
1544442995.1,286046991.0,P
1544442996.0,286046991.0,N
1544443015.8,286046992.7,N
1544443035.6,286046995.1,N
1544443055.5,286046999.1,N
1544443075.3,286046999.7,N
1544443095.1,286047002.4,N
1544443115.9,286047000.6,N
1544443135.7,286047000.4,N
1544443155.6,286046999.7,N
1544443175.4,286046999.9,N
1544443195.2,286047004.2,N
